Regional Weather Roundup
Issued by NWS

Home | Current Version | Previous Version | Graphics & Text | Print | Product List | Glossary Off
Versions: 1 2 3 4 5 6 7 8 9 10 11 12 13 14 15 16 17 18 19 20 21 22 23 24 25 26 27 28 29 30 31 32 33 34 35 36 37 38 39 40 41 42 43 44 45 46 47 48 49 50

000
ASUS43 KLSX 032007
RWRMO

WEATHER SUMMARY FOR MISSOURI
NATIONAL WEATHER SERVICE SPRINGFIELD MO
200 PM CST TUE MAR 03 2015

NOTE: "FAIR" INDICATES FEW OR NO CLOUDS BELOW 12,000 FEET WITH NO
       SIGNIFICANT WEATHER AND/OR OBSTRUCTIONS TO VISIBILITY.
       CURRENT SKY AND/OR WEATHER CONDITIONS ARE NOT AVAILABLE FOR
       CHILLICOTHE AND FARMINGTON.

MOZ001>031-035>038-043-044-053-054-032100-
...NORTHERN AND WESTERN MISSOURI...

CITY           SKY/WX    TMP DP  RH WIND       PRES   REMARKS
KANSAS CTY INT CLOUDY    42  32  67 NW15G21   29.80
KANSAS C DTWN  CLOUDY    45  34  65 NW14G20   29.79
LEE`S SUMMIT   CLOUDY    45  36  70 NW17      29.79F
ST JOSEPH      PTSUNNY   40  29  64 N14       29.83F
CHILLICOTHE      N/A     40  34  79 NW10G17   29.81
KIRKSVILLE     CLOUDY    39  37  92 W14       29.75F FOG

$$
MOZ066>068-077>081-088>096-101>105-032100-
...SOUTHWEST MISSOURI...

CITY           SKY/WX    TMP DP  RH WIND       PRES   REMARKS
SPRINGFIELD    CLOUDY    50  46  86 W13       29.83R
JOPLIN         CLOUDY    46  43  89 SW14G26   29.83

$$
MOZ032>034-039>042-045>050-055>058-069>072-032100-
...CENTRAL MISSOURI...

CITY           SKY/WX    TMP DP  RH WIND       PRES   REMARKS
COLUMBIA       CLOUDY    43  39  86 W14       29.79
JEFFERSON CITY CLOUDY    47  40  76 W14       29.82F
ROLLA          CLOUDY    45  43  93 SW10      29.79F
SEDALIA        CLOUDY    44  40  85 SW13G18   29.80
WHITEMAN AFB   CLOUDY    43  40  89 SW12      29.78F
WARRENSBURG    CLOUDY    43  37  81 SW8       29.79F
OSAGE BEACH    CLOUDY    48  43  81 SW9G16    29.82S

$$
MOZ051-052-059>065-032100-
...EAST CENTRAL MISSOURI...

CITY           SKY/WX    TMP DP  RH WIND       PRES   REMARKS
ST LOUIS INTL  LGT RAIN  46  43  89 W9        29.79F FOG
SPIRIT OF STL  CLOUDY    46  44  93 W8        29.78F FOG
ST CHARLES     FOG       38  38 100 CALM      29.79F VSB<1/4

$$
MOZ072>076-082>087-097>100-106>115-032100-
...SOUTH CENTRAL AND SOUTHEAST MISSOURI...

CITY           SKY/WX    TMP DP  RH WIND       PRES   REMARKS
CAPE GIRARDEAU LGT RAIN  40  40 100 S8        29.88F VSB 1/4
FARMINGTON     CLOUDY    46  43  87 S12G22    29.84S
POPLAR BLUFF   CLOUDY    41  38  89 SW10      29.87F FOG
WEST PLAINS    CLOUDY    51  46  83 SW8       29.83F

$$



USA.gov is the U.S. government's official web portal to all federal, state and local government web resources and services.